Simultaneous Nadir Overpasses (SNOs) Predictions

Prediction of SNOs between AQUA and GOES-15 Satellite Orbit:

Table of predicted SNOs for the next 14.0 days since TLE Epoch: 11/9/2019
Index Date Time (AQUA) AQUA Lat,Lon GOES-15 Lat,Lon Distance(km) Time Diff (sec)
1 11/10/2019 09:54:47 -0.64,-124.95 0.11,-128.53 407.76 80
2 11/10/2019 22:16:11 -0.45,-130.14 -0.09,-128.49 187.91 80
3 11/12/2019 22:04:00 0.20,-127.19 -0.10,-128.49 148.66 80
4 11/13/2019 10:25:16 0.91,-132.34 0.07,-128.54 433.09 80
5 11/14/2019 21:51:48 0.78,-124.22 -0.10,-128.49 484.46 80
6 11/15/2019 10:13:05 0.26,-129.39 0.08,-128.53 97.57 80
7 11/17/2019 10:00:54 -0.39,-126.44 0.08,-128.52 237.09 80
8 11/17/2019 22:22:16 -0.75,-131.62 -0.06,-128.46 359.43 80
9 11/19/2019 22:10:06 -0.09,-128.67 -0.06,-128.44 25.45 80
10 11/21/2019 21:57:54 0.51,-125.71 -0.06,-128.42 308.40 80
11 11/22/2019 10:19:10 0.55,-130.88 0.04,-128.47 273.87 80




NCC Satellite Simultaneous Nadir Overpasses (SNOs) Prediction Service
